[Iaude] MPEC V07: 2016 UW80 [a=1.16,e=0.17,i=13.0,H=24.2]

mpec at si.edu mpec at si.edu
Tue Nov 1 20:31:39 EDT 2016


M.P.E.C. 2016-V07                                Issued 2016 Nov. 2, 00:28 UT
 
     The Minor Planet Electronic Circulars contain information on unusual
         minor planets and routine data on comets.  They are published
    on behalf of Division F of the International Astronomical Union by the
          Minor Planet Center, Smithsonian Astrophysical Observatory,
                          Cambridge, MA 02138, U.S.A.

             Prepared using the Tamkin Foundation Computer Network

                              MPC at CFA.HARVARD.EDU
            URL http://www.minorplanetcenter.net/    ISSN 1523-6714


                                   2016 UW80
 
Observations:
     K16U80W  C2016 10 28.30517 02 32 51.399+12 49 18.56         22.3 wLEV007F51
     K16U80W  C2016 10 28.31173 02 32 49.881+12 49 35.21         21.8 wLEV007F51
     K16U80W  C2016 10 28.31827 02 32 48.338+12 49 51.65         21.9 wLEV007F51
     K16U80W  C2016 10 28.32482 02 32 46.818+12 50 08.05         20.9 wLEV007F51
     K16U80W  C2016 10 28.33144 02 32 45.293+12 50 24.31         20.8 wLEV007F51
     K16U80W  C2016 10 28.33915 02 32 43.506+12 50 43.76         21.9 wLEV007F51
     K16U80W  C2016 10 28.34574 02 32 41.962+12 50 59.96         21.4 wLEV007F51
     K16U80W  C2016 10 28.35239 02 32 40.401+12 51 16.65         21.7 wLEV007F51
     K16U80W  C2016 10 28.35898 02 32 38.869+12 51 32.61         21.4 wLEV007F51
     K16U80W  C2016 10 28.36565 02 32 37.310+12 51 49.58         21.5 wLEV007F51
     K16U80W  C2016 10 28.37230 02 32 35.734+12 52 06.29         21.9 wLEV007F51
     K16U80W  C2016 10 28.37904 02 32 34.127+12 52 23.11         21.6 wLEV007F51
     K16U80W  C2016 10 28.45958 02 32 15.043+12 55 42.05         22.3 wLEV007F51
     K16U80W  C2016 10 28.46617 02 32 13.479+12 55 58.20         22.0 wLEV007F51
     K16U80W  C2016 10 28.47277 02 32 11.915+12 56 14.64         21.7 wLEV007F51
     K16U80W  C2016 10 28.49899 02 32 05.704+12 57 18.78         21.4 wLEV007F51
     K16U80W  C2016 10 28.50554 02 32 04.163+12 57 34.69         21.6 wLEV007F51
     K16U80W  C2016 10 28.51220 02 32 02.582+12 57 51.07         21.6 wLEV007F51
     K16U80W  C2016 10 28.52528 02 31 59.508+12 58 23.08         22.0 wLEV007F51
     K16U80W  C2016 10 28.53183 02 31 57.958+12 58 39.09         21.8 wLEV007F51
     K16U80W  C2016 10 28.53837 02 31 56.423+12 58 55.13         21.1 wLEV007F51
     K16U80W  C2016 10 28.54492 02 31 54.891+12 59 11.10         21.3 wLEV007F51
     K16U80W  C2016 10 28.55146 02 31 53.364+12 59 26.93         21.4 wLEV007F51
     K16U80W  C2016 10 28.55801 02 31 51.815+12 59 43.10         21.9 wLEV007F51
     K16U80W  C2016 10 29.34042 02 28 59.830+13 32 17.32         21.5 wLEV007F51
     K16U80W  C2016 10 29.34700 02 28 58.200+13 32 34.30         21.6 wLEV007F51
     K16U80W  C2016 10 29.35359 02 28 56.638+13 32 50.92         21.5 wLEV007F51
     K16U80W  C2016 10 29.36692 02 28 53.394+13 33 24.78         21.4 wLEV007F51
     K16U80W  C2016 10 29.38040 02 28 50.092+13 33 59.06         21.2 wLEV007F51
     K16U80W  C2016 10 29.38729 02 28 48.412+13 34 16.49         21.2 wLEV007F51
     K16U80W  C2016 10 29.45505 02 28 31.810+13 37 07.33         21.7 wLEV007F51
     K16U80W* C2016 10 29.47681 02 28 26.454+13 38 02.26         21.2 wLEV007F51
     K16U80W  C2016 10 29.48336 02 28 24.851+13 38 18.52         21.2 wLEV007F51
     K16U80W  C2016 10 29.48992 02 28 23.259+13 38 35.05         21.2 wLEV007F51
     K16U80W  C2016 10 29.49647 02 28 21.640+13 38 51.39         21.2 wLEV007F51
     K16U80W  C2016 10 29.50961 02 28 18.422+13 39 24.26         21.8 wLEV007F51
     K16U80W  C2016 10 29.51617 02 28 16.834+13 39 40.70         21.4 wLEV007F51
     K16U80W  C2016 10 29.52277 02 28 15.208+13 39 57.17         21.6 wLEV007F51
     K16U80W KC2016 10 30.06037 02 26 11.44 +14 02 26.3                qEV007104
     K16U80W KC2016 10 30.06826 02 26 09.56 +14 02 46.2          20.9 RqEV007104
     K16U80W KC2016 10 30.07508 02 26 07.92 +14 03 03.5                qEV007104
     K16U80W  C2016 10 30.22634 02 25 35.10 +14 09 40.2          21.1 RoEV007926
     K16U80W  C2016 10 30.23323 02 25 33.40 +14 09 57.7          21.1 RoEV007926
     K16U80W  C2016 10 30.23956 02 25 31.81 +14 10 14.0          21.0 RoEV007926
     K16U80W  C2016 10 30.28414 02 25 22.591+14 12 13.05         21.2 wLEV007F51
     K16U80W  C2016 10 30.29075 02 25 20.980+14 12 30.37         21.5 wLEV007F51
     K16U80W  C2016 10 30.29756 02 25 19.309+14 12 48.54         22.4 wLEV007F51
     K16U80W  C2016 10 30.54964 02 24 15.898+14 23 36.90         21.3 wLEV007F51
     K16U80W  C2016 10 30.55634 02 24 14.217+14 23 53.89         21.5 wLEV007F51
     K16U80W  C2016 10 30.56304 02 24 12.586+14 24 10.58         21.1 wLEV007F51
     K16U80W  C2016 10 30.56966 02 24 10.931+14 24 27.42         22.1 wLEV007F51
     K16U80W  C2016 10 31.28479 02 21 24.192+14 55 23.00         21.2 wLEV007F51
     K16U80W  C2016 10 31.29132 02 21 22.555+14 55 40.23         21.3 wLEV007F51
     K16U80W  C2016 10 31.32660 02 21 13.552+14 57 14.10         21.7 wLEV007F51
 
Observer details:
104 San Marcello Pistoiese.  Observers P. Bacci, M. Maestripieri.  Measurers
    P. Bacci, L. Tesi, G. Fagioli.  0.60-m f/4 reflector + CCD.
926 Tenagra II Observatory.  Observers M. Schwartz, P. R. Holvorcem.  Measurer
    M. Schwartz.  0.81-m f/7 Ritchey-Chretien + CCD.
F51 Pan-STARRS 1, Haleakala.  Observers B. Gibson, T. Goggia, S. Kahale,
    A. Schultz, M. Willman.  Measurers K. Chambers, S. Chastel, L. Denneau,
    H. Flewelling, M. Huber, E. Lilly, E. Magnier, R. Wainscoat, C. Waters,
    R. Weryk.  1.8-m Ritchey-Chretien + CCD.
 
Orbital elements:
2016 UW80                                                Earth MOID = 0.0564 AU
Epoch 2016 July 31.0 TT = JDT 2457600.5                 MPC
M 198.89883              (2000.0)            P               Q
n   0.78530208     Peri.  108.30162     -0.81199962     -0.56741764
a   1.1635317      Node    37.46743     +0.41353861     -0.72462702
e   0.1688681      Incl.   12.98891     +0.41187672     -0.39109194
P   1.26           H   24.2           G   0.15           U   6
Residuals in seconds of arc
161028 F51  0.3+  0.1-    161028 F51  0.1+  0.1-    161029 F51  0.0   0.1+
161028 F51  0.2+  0.1+    161028 F51  0.1-  0.1-    161029 F51  0.2-  0.1+
161028 F51  0.2-  0.2+    161028 F51  0.0   0.0     161030 104  0.3-  0.1-
161028 F51  0.2-  0.2+    161028 F51  0.0   0.0     161030 104  0.3+  0.1-
161028 F51  0.0   0.0     161028 F51  0.1+  0.1-    161030 104  0.7+  0.0
161028 F51  0.1+  0.2+    161028 F51  0.2-  0.1+    161030 926  0.1-  0.2+
161028 F51  0.1+  0.1-    161029 F51  0.2+  0.1+    161030 926  0.1+  0.1-
161028 F51  0.0   0.0     161029 F51  0.4-  0.3+    161030 926  0.1-  0.2-
161028 F51  0.2+  0.4-    161029 F51  0.1+  0.1+    161030 F51  0.1-  0.3-
161028 F51  0.3+  0.0     161029 F51  0.1+  0.1+    161030 F51  0.1+  0.3-
161028 F51  0.1+  0.1+    161029 F51  0.1-  0.1+    161030 F51  0.2+  0.1+
161028 F51  0.2-  0.2+    161029 F51  0.1-  0.1+    161030 F51  0.1+  0.1+
161028 F51  0.2-  0.1-    161029 F51  0.2+  0.2-    161030 F51  0.1-  0.2+
161028 F51  0.2-  0.1-    161029 F51  0.1-  0.1+    161030 F51  0.4+  0.1-
161028 F51  0.1-  0.1+    161029 F51  0.0   0.1-    161030 F51  0.2+  0.0
161028 F51  0.1-  0.1-    161029 F51  0.2+  0.0     161031 F51  0.4-  0.0
161028 F51  0.0   0.2-    161029 F51  0.0   0.0     161031 F51  0.1-  0.1-
161028 F51  0.1-  0.1-    161029 F51  0.1-  0.0     161031 F51  0.1+  0.1+

Ephemeris:
2016 UW80                a,e,i = 1.16, 0.17, 13                  q = 0.9670
Date    TT    R. A. (2000) Decl.     Delta      r     Elong.  Phase     V
2016 10 03    03 22 50.1 +01 13 31   0.3219  1.2596   138.4    31.8    23.6
...
2016 10 18    03 03 01.4 +06 44 20   0.2441  1.2251   157.3    18.3    22.5
...
2016 10 26    02 40 52.7 +11 17 32   0.2135  1.2052   170.5     7.8    21.8
...
2016 11 01    02 18 27.5 +15 26 46   0.1973  1.1897   178.0     1.7    21.3
2016 11 02    02 14 17.3 +16 11 03   0.1952  1.1871   176.1     3.3    21.3
2016 11 03    02 10 00.7 +16 55 52   0.1933  1.1845   174.1     5.0    21.4
...
2016 11 09    01 42 37.6 +21 29 36   0.1859  1.1685   161.8    15.4    21.7
...
2016 11 17    01 04 37.1 +27 15 32   0.1857  1.1469   145.7    29.1    22.1
...
2016 12 02    00 05 38.8 +35 27 51   0.2064  1.1060   120.8    49.9    22.9

A. U. Tomatic                (C) Copyright 2016 MPC           M.P.E.C. 2016-V07




More information about the Iaude mailing list